Year,Month,Day,Hour,Minute,Value (Times are PST for barometer in hPa)
2016,03,05,00,00,996.28
2016,03,05,00,01,996.28
2016,03,05,00,02,996.17
2016,03,05,00,03,996.11
2016,03,05,00,04,996.07
2016,03,05,00,05,996.04
2016,03,05,00,06,996.01
2016,03,05,00,07,995.97
2016,03,05,00,08,995.90
2016,03,05,00,09,995.94
2016,03,05,00,10,995.90
2016,03,05,00,11,995.97
2016,03,05,00,12,995.94
2016,03,05,00,13,995.87
2016,03,05,00,14,995.84
2016,03,05,00,15,995.77
2016,03,05,00,16,995.77
2016,03,05,00,17,995.73
2016,03,05,00,18,995.63
2016,03,05,00,19,995.56
2016,03,05,00,20,995.53
2016,03,05,00,21,995.50
2016,03,05,00,22,995.50
2016,03,05,00,23,995.50
2016,03,05,00,24,995.46
2016,03,05,00,25,995.46
2016,03,05,00,26,995.53
2016,03,05,00,27,995.50
2016,03,05,00,28,995.50
2016,03,05,00,29,995.50
2016,03,05,00,30,995.43
2016,03,05,00,31,995.40
2016,03,05,00,32,995.36
2016,03,05,00,33,995.43
2016,03,05,00,34,995.43
2016,03,05,00,35,995.46
2016,03,05,00,36,995.40
2016,03,05,00,37,995.40
2016,03,05,00,38,995.29
2016,03,05,00,39,995.29
2016,03,05,00,40,995.29
2016,03,05,00,41,995.23
2016,03,05,00,42,995.23
2016,03,05,00,43,995.16
2016,03,05,00,44,995.12
2016,03,05,00,45,995.09
2016,03,05,00,46,994.99
2016,03,05,00,47,994.99
2016,03,05,00,48,994.99
2016,03,05,00,49,994.96
2016,03,05,00,50,994.89
2016,03,05,00,51,994.89
2016,03,05,00,52,994.96
2016,03,05,00,53,994.82
2016,03,05,00,54,994.82
2016,03,05,00,55,994.75
2016,03,05,00,56,994.72
2016,03,05,00,57,994.68
2016,03,05,00,58,994.68
2016,03,05,00,59,994.72
2016,03,05,01,00,994.72
2016,03,05,01,01,994.75
2016,03,05,01,02,994.72
2016,03,05,01,03,994.75
2016,03,05,01,04,994.72
2016,03,05,01,05,994.62
2016,03,05,01,06,994.65
2016,03,05,01,07,994.52
2016,03,05,01,08,994.55
2016,03,05,01,09,994.48
2016,03,05,01,10,994.45
2016,03,05,01,11,994.45
2016,03,05,01,12,994.48
2016,03,05,01,13,994.48
2016,03,05,01,14,994.45
2016,03,05,01,15,994.41
2016,03,05,01,16,994.35
2016,03,05,01,17,994.38
2016,03,05,01,18,994.45
2016,03,05,01,19,994.41
2016,03,05,01,20,994.41
2016,03,05,01,21,994.38
2016,03,05,01,22,994.35
2016,03,05,01,23,994.38
2016,03,05,01,24,994.31
2016,03,05,01,25,994.31
2016,03,05,01,26,994.31
2016,03,05,01,27,994.28
2016,03,05,01,28,994.24
2016,03,05,01,29,994.18
2016,03,05,01,30,994.21
2016,03,05,01,31,994.21
2016,03,05,01,32,994.21
2016,03,05,01,33,994.11
2016,03,05,01,34,994.21
2016,03,05,01,35,994.11
2016,03,05,01,36,994.04
2016,03,05,01,37,994.04
2016,03,05,01,38,993.94
2016,03,05,01,39,993.91
2016,03,05,01,40,993.91
2016,03,05,01,41,993.80
2016,03,05,01,42,993.77
2016,03,05,01,43,993.70
2016,03,05,01,44,993.63
2016,03,05,01,45,993.63
2016,03,05,01,46,993.63
2016,03,05,01,47,993.57
2016,03,05,01,48,993.53
2016,03,05,01,49,993.63
2016,03,05,01,50,993.53
2016,03,05,01,51,993.67
2016,03,05,01,52,993.70
2016,03,05,01,53,993.74
2016,03,05,01,54,993.67
2016,03,05,01,55,993.63
2016,03,05,01,56,993.57
2016,03,05,01,57,993.53
2016,03,05,01,58,993.53
2016,03,05,01,59,993.47
2016,03,05,02,00,993.50
2016,03,05,02,01,993.43
2016,03,05,02,02,993.36
2016,03,05,02,03,993.33
2016,03,05,02,04,993.30
2016,03,05,02,05,993.19
2016,03,05,02,06,993.19
2016,03,05,02,07,993.16
2016,03,05,02,08,993.09
2016,03,05,02,09,993.06
2016,03,05,02,10,993.13
2016,03,05,02,11,993.13
2016,03,05,02,12,993.13
2016,03,05,02,13,993.19
2016,03,05,02,14,993.09
2016,03,05,02,15,993.09
2016,03,05,02,16,993.06
2016,03,05,02,17,992.92
2016,03,05,02,18,992.89
2016,03,05,02,19,992.89
2016,03,05,02,20,993.09
2016,03,05,02,21,993.06
2016,03,05,02,22,993.03
2016,03,05,02,23,992.92
2016,03,05,02,24,992.99
2016,03,05,02,25,992.75
2016,03,05,02,26,992.72
2016,03,05,02,27,992.79
2016,03,05,02,28,992.79
2016,03,05,02,29,992.79
2016,03,05,02,30,992.79
2016,03,05,02,31,992.79
2016,03,05,02,32,992.82
2016,03,05,02,33,992.72
2016,03,05,02,34,992.65
2016,03,05,02,35,992.69
2016,03,05,02,36,992.65
2016,03,05,02,37,992.58
2016,03,05,02,38,992.52
2016,03,05,02,39,992.62
2016,03,05,02,40,992.58
2016,03,05,02,41,992.62
2016,03,05,02,42,992.55
2016,03,05,02,43,992.52
2016,03,05,02,44,992.62
2016,03,05,02,45,992.62
2016,03,05,02,46,992.65
2016,03,05,02,47,992.58
2016,03,05,02,48,992.69
2016,03,05,02,49,992.52
2016,03,05,02,50,992.69
2016,03,05,02,51,992.69
2016,03,05,02,52,992.75
2016,03,05,02,53,992.65
2016,03,05,02,54,992.82
2016,03,05,02,55,992.82
2016,03,05,02,56,992.86
2016,03,05,02,57,992.86
2016,03,05,02,58,992.89
2016,03,05,02,59,992.92
2016,03,05,03,00,992.89
2016,03,05,03,01,992.99
2016,03,05,03,02,992.99
2016,03,05,03,03,993.03
2016,03,05,03,04,993.09
2016,03,05,03,05,993.03
2016,03,05,03,06,993.09
2016,03,05,03,07,993.23
2016,03,05,03,08,993.23
2016,03,05,03,09,993.30
2016,03,05,03,10,993.33
2016,03,05,03,11,993.43
2016,03,05,03,12,993.47
2016,03,05,03,13,993.50
2016,03,05,03,14,993.57
2016,03,05,03,15,993.63
2016,03,05,03,16,993.84
2016,03,05,03,17,993.74
2016,03,05,03,18,993.70
2016,03,05,03,19,993.77
2016,03,05,03,20,993.77
2016,03,05,03,21,993.77
2016,03,05,03,22,993.77
2016,03,05,03,23,993.74
2016,03,05,03,24,993.77
2016,03,05,03,25,993.74
2016,03,05,03,26,993.74
2016,03,05,03,27,993.70
2016,03,05,03,28,993.74
2016,03,05,03,29,993.63
2016,03,05,03,30,993.53
2016,03,05,03,31,993.33
2016,03,05,03,32,993.47
2016,03,05,03,33,993.57
2016,03,05,03,34,993.53
2016,03,05,03,35,993.53
2016,03,05,03,36,993.47
2016,03,05,03,37,993.50
2016,03,05,03,38,993.47
2016,03,05,03,39,993.43
2016,03,05,03,40,993.43
2016,03,05,03,41,993.43
2016,03,05,03,42,993.43
2016,03,05,03,43,993.50
2016,03,05,03,44,993.70
2016,03,05,03,45,993.70
2016,03,05,03,46,993.63
2016,03,05,03,47,993.70
2016,03,05,03,48,993.70
2016,03,05,03,49,993.74
2016,03,05,03,50,993.80
2016,03,05,03,51,993.91
2016,03,05,03,52,993.94
2016,03,05,03,53,993.94
2016,03,05,03,54,993.91
2016,03,05,03,55,993.91
2016,03,05,03,56,993.84
2016,03,05,03,57,993.91
2016,03,05,03,58,993.91
2016,03,05,03,59,994.04
2016,03,05,04,00,994.07
2016,03,05,04,01,994.11
2016,03,05,04,02,994.04
2016,03,05,04,03,994.14
2016,03,05,04,04,994.07
2016,03,05,04,05,994.11
2016,03,05,04,06,994.14
2016,03,05,04,07,994.14
2016,03,05,04,08,994.18
2016,03,05,04,09,994.21
2016,03,05,04,10,994.18
2016,03,05,04,11,994.28
2016,03,05,04,12,994.41
2016,03,05,04,13,994.35
2016,03,05,04,14,994.45
2016,03,05,04,15,994.48
2016,03,05,04,16,994.48
2016,03,05,04,17,994.45
2016,03,05,04,18,994.38
2016,03,05,04,19,994.38
2016,03,05,04,20,994.41
2016,03,05,04,21,994.45
2016,03,05,04,22,994.41
2016,03,05,04,23,994.41
2016,03,05,04,24,994.45
2016,03,05,04,25,994.45
2016,03,05,04,26,994.45
2016,03,05,04,27,994.38
2016,03,05,04,28,994.48
2016,03,05,04,29,994.55
2016,03,05,04,30,994.58
2016,03,05,04,31,994.55
2016,03,05,04,32,994.55
2016,03,05,04,33,994.58
2016,03,05,04,34,994.62
2016,03,05,04,35,994.62
2016,03,05,04,36,994.62
2016,03,05,04,37,994.62
2016,03,05,04,38,994.55
2016,03,05,04,39,994.58
2016,03,05,04,40,994.58
2016,03,05,04,41,994.65
2016,03,05,04,42,994.68
2016,03,05,04,43,994.65
2016,03,05,04,44,994.68
2016,03,05,04,45,994.62
2016,03,05,04,46,994.62
2016,03,05,04,47,994.65
2016,03,05,04,48,994.65
2016,03,05,04,49,994.65
2016,03,05,04,50,994.68
2016,03,05,04,51,994.75
2016,03,05,04,52,994.75
2016,03,05,04,53,994.79
2016,03,05,04,54,994.89
2016,03,05,04,55,994.85
2016,03,05,04,56,994.85
2016,03,05,04,57,994.75
2016,03,05,04,58,994.75
2016,03,05,04,59,994.82
2016,03,05,05,00,994.85
2016,03,05,05,01,994.82
2016,03,05,05,02,994.82
2016,03,05,05,03,994.82
2016,03,05,05,04,994.82
2016,03,05,05,05,994.89
2016,03,05,05,06,994.92
2016,03,05,05,07,994.89
2016,03,05,05,08,994.92
2016,03,05,05,09,994.85
2016,03,05,05,10,994.96
2016,03,05,05,11,994.92
2016,03,05,05,12,994.96
2016,03,05,05,13,994.96
2016,03,05,05,14,994.89
2016,03,05,05,15,994.92
2016,03,05,05,16,995.06
2016,03,05,05,17,995.09
2016,03,05,05,18,995.16
2016,03,05,05,19,995.19
2016,03,05,05,20,995.23
2016,03,05,05,21,995.29
2016,03,05,05,22,995.26
2016,03,05,05,23,995.36
2016,03,05,05,24,995.40
2016,03,05,05,25,995.40
2016,03,05,05,26,995.40
2016,03,05,05,27,995.26
2016,03,05,05,28,995.36
2016,03,05,05,29,995.40
2016,03,05,05,30,995.40
2016,03,05,05,31,995.43
2016,03,05,05,32,995.40
2016,03,05,05,33,995.46
2016,03,05,05,34,995.50
2016,03,05,05,35,995.53
2016,03,05,05,36,995.53
2016,03,05,05,37,995.50
2016,03,05,05,38,995.56
2016,03,05,05,39,995.53
2016,03,05,05,40,995.56
2016,03,05,05,41,995.67
2016,03,05,05,42,995.70
2016,03,05,05,43,995.70
2016,03,05,05,44,995.73
2016,03,05,05,45,995.77
2016,03,05,05,46,995.73
2016,03,05,05,47,995.84
2016,03,05,05,48,995.80
2016,03,05,05,49,995.87
2016,03,05,05,50,995.77
2016,03,05,05,51,995.87
2016,03,05,05,52,995.80
2016,03,05,05,53,995.84
2016,03,05,05,54,995.84
2016,03,05,05,55,995.77
2016,03,05,05,56,995.87
2016,03,05,05,57,995.90
2016,03,05,05,58,995.94
2016,03,05,05,59,995.97
2016,03,05,06,00,996.01
2016,03,05,06,01,995.94
2016,03,05,06,02,995.94
2016,03,05,06,03,995.90
2016,03,05,06,04,995.94
2016,03,05,06,05,996.01
2016,03,05,06,06,996.01
2016,03,05,06,07,996.01
2016,03,05,06,08,996.01
2016,03,05,06,09,996.04
2016,03,05,06,10,996.14
2016,03,05,06,11,996.11
2016,03,05,06,12,996.07
2016,03,05,06,13,996.17
2016,03,05,06,14,996.21
2016,03,05,06,15,996.14
2016,03,05,06,16,996.17
2016,03,05,06,17,996.17
2016,03,05,06,18,996.14
2016,03,05,06,19,996.14
2016,03,05,06,20,996.21
2016,03,05,06,21,996.21
2016,03,05,06,22,996.24
2016,03,05,06,23,996.24
2016,03,05,06,24,996.24
2016,03,05,06,25,996.24
2016,03,05,06,26,996.28
2016,03,05,06,27,996.28
2016,03,05,06,28,996.38
2016,03,05,06,29,996.34
2016,03,05,06,30,996.34
2016,03,05,06,31,996.41
2016,03,05,06,32,996.48
2016,03,05,06,33,996.61
2016,03,05,06,34,996.68
2016,03,05,06,35,996.65
2016,03,05,06,36,996.61
2016,03,05,06,37,996.65
2016,03,05,06,38,996.65
2016,03,05,06,39,996.68
2016,03,05,06,40,996.68
2016,03,05,06,41,996.72
2016,03,05,06,42,996.65
2016,03,05,06,43,996.75
2016,03,05,06,44,996.65
2016,03,05,06,45,996.72
2016,03,05,06,46,996.72
2016,03,05,06,47,996.72
2016,03,05,06,48,996.75
2016,03,05,06,49,996.82
2016,03,05,06,50,996.82
2016,03,05,06,51,996.85
2016,03,05,06,52,996.89
2016,03,05,06,53,996.92
2016,03,05,06,54,996.92
2016,03,05,06,55,996.95
2016,03,05,06,56,997.05
2016,03,05,06,57,997.05
2016,03,05,06,58,997.16
2016,03,05,06,59,997.12
2016,03,05,07,00,997.22
2016,03,05,07,01,997.19
2016,03,05,07,02,997.26
2016,03,05,07,03,997.26
2016,03,05,07,04,997.22
2016,03,05,07,05,997.22
2016,03,05,07,06,997.29
2016,03,05,07,07,997.26
2016,03,05,07,08,997.26
2016,03,05,07,09,997.33
2016,03,05,07,10,997.36
2016,03,05,07,11,997.39
2016,03,05,07,12,997.39
2016,03,05,07,13,997.46
2016,03,05,07,14,997.46
2016,03,05,07,15,997.46
2016,03,05,07,16,997.53
2016,03,05,07,17,997.53
2016,03,05,07,18,997.56
2016,03,05,07,19,997.63
2016,03,05,07,20,997.56
2016,03,05,07,21,997.63
2016,03,05,07,22,997.63
2016,03,05,07,23,997.63
2016,03,05,07,24,997.66
2016,03,05,07,25,997.60
2016,03,05,07,26,997.60
2016,03,05,07,27,997.70
2016,03,05,07,28,997.70
2016,03,05,07,29,997.80
2016,03,05,07,30,997.80
2016,03,05,07,31,997.90
2016,03,05,07,32,997.87
2016,03,05,07,33,997.94
2016,03,05,07,34,997.94
2016,03,05,07,35,997.87
2016,03,05,07,36,997.87
2016,03,05,07,37,997.90
2016,03,05,07,38,997.90
2016,03,05,07,39,998.03
2016,03,05,07,40,998.04
2016,03,05,07,41,998.04
2016,03,05,07,42,998.07
2016,03,05,07,43,998.04
2016,03,05,07,44,998.00
2016,03,05,07,45,997.97
2016,03,05,07,46,997.97
2016,03,05,07,47,998.10
2016,03,05,07,48,998.07
2016,03,05,07,49,998.10
2016,03,05,07,50,998.07
2016,03,05,07,51,998.17
2016,03,05,07,52,998.14
2016,03,05,07,53,998.31
2016,03,05,07,54,998.31
2016,03,05,07,55,998.34
2016,03,05,07,56,998.34
2016,03,05,07,57,998.44
2016,03,05,07,58,998.44
2016,03,05,07,59,998.54
2016,03,05,08,00,998.54
2016,03,05,08,01,998.58
2016,03,05,08,02,998.61
2016,03,05,08,03,998.61
2016,03,05,08,04,998.61
2016,03,05,08,05,998.65
2016,03,05,08,06,998.65
2016,03,05,08,07,998.61
2016,03,05,08,08,998.65
2016,03,05,08,09,998.68
2016,03,05,08,10,998.71
2016,03,05,08,11,998.75
2016,03,05,08,12,998.71
2016,03,05,08,13,998.82
2016,03,05,08,14,998.88
2016,03,05,08,15,998.82
2016,03,05,08,16,998.82
2016,03,05,08,17,998.85
2016,03,05,08,18,998.85
2016,03,05,08,19,998.82
2016,03,05,08,20,998.92
2016,03,05,08,21,998.92
2016,03,05,08,22,998.92
2016,03,05,08,23,998.95
2016,03,05,08,24,998.95
2016,03,05,08,25,998.92
2016,03,05,08,26,998.99
2016,03,05,08,27,998.92
2016,03,05,08,28,998.99
2016,03,05,08,29,998.99
2016,03,05,08,30,998.95
2016,03,05,08,31,998.99
2016,03,05,08,32,999.11
2016,03,05,08,33,999.15
2016,03,05,08,34,999.15
2016,03,05,08,35,999.22
2016,03,05,08,36,999.22
2016,03,05,08,37,999.29
2016,03,05,08,38,999.29
2016,03,05,08,39,999.32
2016,03,05,08,40,999.32
2016,03,05,08,41,999.39
2016,03,05,08,42,999.43
2016,03,05,08,43,999.39
2016,03,05,08,44,999.46
2016,03,05,08,45,999.46
2016,03,05,08,46,999.46
2016,03,05,08,47,999.49
2016,03,05,08,48,999.53
2016,03,05,08,49,999.53
2016,03,05,08,50,999.53
2016,03,05,08,51,999.53
2016,03,05,08,52,999.56
2016,03,05,08,53,999.53
2016,03,05,08,54,999.53
2016,03,05,08,55,999.53
2016,03,05,08,56,999.53
2016,03,05,08,57,999.53
2016,03,05,08,58,999.56
2016,03,05,08,59,999.56
2016,03,05,09,00,999.56
2016,03,05,09,01,999.63
2016,03,05,09,02,999.59
2016,03,05,09,03,999.63
2016,03,05,09,04,999.63
2016,03,05,09,05,999.63
2016,03,05,09,06,999.56
2016,03,05,09,07,999.53
2016,03,05,09,08,999.53
2016,03,05,09,09,999.56
2016,03,05,09,10,999.53
2016,03,05,09,11,999.53
2016,03,05,09,12,999.53
2016,03,05,09,13,999.53
2016,03,05,09,14,999.53
2016,03,05,09,15,999.49
2016,03,05,09,16,999.53
2016,03,05,09,17,999.59
2016,03,05,09,18,999.59
2016,03,05,09,19,999.59
2016,03,05,09,20,999.59
2016,03,05,09,21,999.56
2016,03,05,09,22,999.56
2016,03,05,09,23,999.63
2016,03,05,09,24,999.56
2016,03,05,09,25,999.63
2016,03,05,09,26,999.59
2016,03,05,09,27,999.56
2016,03,05,09,28,999.63
2016,03,05,09,29,999.63
2016,03,05,09,30,999.66
2016,03,05,09,31,999.66
2016,03,05,09,32,999.70
2016,03,05,09,33,999.73
2016,03,05,09,34,999.76
2016,03,05,09,35,999.80
2016,03,05,09,36,999.83
2016,03,05,09,37,999.87
2016,03,05,09,38,999.83
2016,03,05,09,39,999.83
2016,03,05,09,40,999.83
2016,03,05,09,41,999.83
2016,03,05,09,42,999.87
2016,03,05,09,43,999.93
2016,03,05,09,44,1000.00
2016,03,05,09,45,999.97
2016,03,05,09,46,1000.00
2016,03,05,09,47,1000.00
2016,03,05,09,48,1000.00
2016,03,05,09,49,1000.00
2016,03,05,09,50,999.97
2016,03,05,09,51,1000.03
2016,03,05,09,52,1000.00
2016,03,05,09,53,999.97
2016,03,05,09,54,999.93
2016,03,05,09,55,1000.00
2016,03,05,09,56,1000.00
2016,03,05,09,57,1000.00
2016,03,05,09,58,1000.03
2016,03,05,09,59,1000.03
2016,03,05,10,00,1000.03
2016,03,05,10,01,1000.03
2016,03,05,10,02,1000.03
2016,03,05,10,03,999.97
2016,03,05,10,04,1000.00
2016,03,05,10,05,999.93
2016,03,05,10,06,1000.00
2016,03,05,10,07,999.97
2016,03,05,10,08,999.93
2016,03,05,10,09,999.90
2016,03,05,10,10,999.90
2016,03,05,10,11,999.83
2016,03,05,10,12,999.83
2016,03,05,10,13,999.80
2016,03,05,10,14,999.80
2016,03,05,10,15,999.80
2016,03,05,10,16,999.83
2016,03,05,10,17,999.80
2016,03,05,10,18,999.80
2016,03,05,10,19,999.76
2016,03,05,10,20,999.70
2016,03,05,10,21,999.70
2016,03,05,10,22,999.66
2016,03,05,10,23,999.66
2016,03,05,10,24,999.63
2016,03,05,10,25,999.63
2016,03,05,10,26,999.59
2016,03,05,10,27,999.59
2016,03,05,10,28,999.56
2016,03,05,10,29,999.56
2016,03,05,10,30,999.49
2016,03,05,10,31,999.53
2016,03,05,10,32,999.49
2016,03,05,10,33,999.49
2016,03,05,10,34,999.49
2016,03,05,10,35,999.46
2016,03,05,10,36,999.39
2016,03,05,10,37,999.43
2016,03,05,10,38,999.46
2016,03,05,10,39,999.43
2016,03,05,10,40,999.53
2016,03,05,10,41,999.49
2016,03,05,10,42,999.49
2016,03,05,10,43,999.46
2016,03,05,10,44,999.43
2016,03,05,10,45,999.43
2016,03,05,10,46,999.43
2016,03,05,10,47,999.39
2016,03,05,10,48,999.46
2016,03,05,10,49,999.46
2016,03,05,10,50,999.49
2016,03,05,10,51,999.43
2016,03,05,10,52,999.46
2016,03,05,10,53,999.46
2016,03,05,10,54,999.49
2016,03,05,10,55,999.49
2016,03,05,10,56,999.53
2016,03,05,10,57,999.56
2016,03,05,10,58,999.53
2016,03,05,10,59,999.53
2016,03,05,11,00,999.56
2016,03,05,11,01,999.56
2016,03,05,11,02,999.53
2016,03,05,11,03,999.53
2016,03,05,11,04,999.49
2016,03,05,11,05,999.53
2016,03,05,11,06,999.49
2016,03,05,11,07,999.53
2016,03,05,11,08,999.49
2016,03,05,11,09,999.46
2016,03,05,11,10,999.53
2016,03,05,11,11,999.49
2016,03,05,11,12,999.49
2016,03,05,11,13,999.56
2016,03,05,11,14,999.56
2016,03,05,11,15,999.56
2016,03,05,11,16,999.56
2016,03,05,11,17,999.53
2016,03,05,11,18,999.49
2016,03,05,11,19,999.56
2016,03,05,11,20,999.63
2016,03,05,11,21,999.59
2016,03,05,11,22,999.63
2016,03,05,11,23,999.59
2016,03,05,11,24,999.70
2016,03,05,11,25,999.70
2016,03,05,11,26,999.73
2016,03,05,11,27,999.76
2016,03,05,11,28,999.80
2016,03,05,11,29,999.83
2016,03,05,11,30,999.90
2016,03,05,11,31,999.87
2016,03,05,11,32,999.83
2016,03,05,11,33,999.87
2016,03,05,11,34,999.87
2016,03,05,11,35,999.87
2016,03,05,11,36,999.90
2016,03,05,11,37,999.93
2016,03,05,11,38,999.97
2016,03,05,11,39,1000.03
2016,03,05,11,40,1000.07
2016,03,05,11,41,1000.14
2016,03,05,11,42,1000.10
2016,03,05,11,43,1000.14
2016,03,05,11,44,1000.17
2016,03,05,11,45,1000.14
2016,03,05,11,46,1000.20
2016,03,05,11,47,1000.24
2016,03,05,11,48,1000.27
2016,03,05,11,49,1000.24
2016,03,05,11,50,1000.31
2016,03,05,11,51,1000.31
2016,03,05,11,52,1000.31
2016,03,05,11,53,1000.37
2016,03,05,11,54,1000.37
2016,03,05,11,55,1000.37
2016,03,05,11,56,1000.34
2016,03,05,11,57,1000.37
2016,03,05,11,58,1000.37
2016,03,05,11,59,1000.41
2016,03,05,12,00,1000.37
2016,03,05,12,01,1000.41
2016,03,05,12,02,1000.48
2016,03,05,12,03,1000.41
2016,03,05,12,04,1000.44
2016,03,05,12,05,1000.48
2016,03,05,12,06,1000.48
2016,03,05,12,07,1000.51
2016,03,05,12,08,1000.54
2016,03,05,12,09,1000.58
2016,03,05,12,10,1000.58
2016,03,05,12,11,1000.54
2016,03,05,12,12,1000.51
2016,03,05,12,13,1000.44
2016,03,05,12,14,1000.41
2016,03,05,12,15,1000.44
2016,03,05,12,16,1000.41
2016,03,05,12,17,1000.37
2016,03,05,12,18,1000.34
2016,03,05,12,19,1000.27
2016,03,05,12,20,1000.27
2016,03,05,12,21,1000.31
2016,03,05,12,22,1000.37
2016,03,05,12,23,1000.31
2016,03,05,12,24,1000.31
2016,03,05,12,25,1000.37
2016,03,05,12,26,1000.37
2016,03,05,12,27,1000.37
2016,03,05,12,28,1000.31
2016,03,05,12,29,1000.34
2016,03,05,12,30,1000.37
2016,03,05,12,31,1000.37
2016,03,05,12,32,1000.37
2016,03,05,12,33,1000.31
2016,03,05,12,34,1000.31
2016,03,05,12,35,1000.31
2016,03,05,12,36,1000.34
2016,03,05,12,37,1000.34
2016,03,05,12,38,1000.34
2016,03,05,12,39,1000.34
2016,03,05,12,40,1000.34
2016,03,05,12,41,1000.31
2016,03,05,12,42,1000.34
2016,03,05,12,43,1000.34
2016,03,05,12,44,1000.31
2016,03,05,12,45,1000.34
2016,03,05,12,46,1000.34
2016,03,05,12,47,1000.41
2016,03,05,12,48,1000.41
2016,03,05,12,49,1000.41
2016,03,05,12,50,1000.48
2016,03,05,12,51,1000.51
2016,03,05,12,52,1000.48
2016,03,05,12,53,1000.54
2016,03,05,12,54,1000.67
2016,03,05,12,55,1000.58
2016,03,05,12,56,1000.68
2016,03,05,12,57,1000.71
2016,03,05,12,58,1000.68
2016,03,05,12,59,1000.64
2016,03,05,13,00,1000.58
2016,03,05,13,01,1000.48
2016,03,05,13,02,1000.41
2016,03,05,13,03,1000.37
2016,03,05,13,04,1000.27
2016,03,05,13,05,1000.31
2016,03,05,13,06,1000.31
2016,03,05,13,07,1000.24
2016,03,05,13,08,1000.17
2016,03,05,13,09,1000.17
2016,03,05,13,10,1000.10
2016,03,05,13,11,1000.10
2016,03,05,13,12,1000.07
2016,03,05,13,13,1000.10
2016,03,05,13,14,1000.10
2016,03,05,13,15,1000.10
2016,03,05,13,16,1000.14
2016,03,05,13,17,1000.10
2016,03,05,13,18,1000.10
2016,03,05,13,19,1000.10
2016,03,05,13,20,1000.10
2016,03,05,13,21,1000.10
2016,03,05,13,22,1000.07
2016,03,05,13,23,1000.10
2016,03,05,13,24,1000.03
2016,03,05,13,25,1000.07
2016,03,05,13,26,1000.00
2016,03,05,13,27,1000.07
2016,03,05,13,28,1000.00
2016,03,05,13,29,999.93
2016,03,05,13,30,999.93
2016,03,05,13,31,999.90
2016,03,05,13,32,999.87
2016,03,05,13,33,999.83
2016,03,05,13,34,999.80
2016,03,05,13,35,999.76
2016,03,05,13,36,999.80
2016,03,05,13,37,999.76
2016,03,05,13,38,999.76
2016,03,05,13,39,999.80
2016,03,05,13,40,999.80
2016,03,05,13,41,999.76
2016,03,05,13,42,999.73
2016,03,05,13,43,999.73
2016,03,05,13,44,999.70
2016,03,05,13,45,999.73
2016,03,05,13,46,999.76
2016,03,05,13,47,999.76
2016,03,05,13,48,999.76
2016,03,05,13,49,999.73
2016,03,05,13,50,999.73
2016,03,05,13,51,999.70
2016,03,05,13,52,999.73
2016,03,05,13,53,999.66
2016,03,05,13,54,999.70
2016,03,05,13,55,999.66
2016,03,05,13,56,999.63
2016,03,05,13,57,999.66
2016,03,05,13,58,999.66
2016,03,05,13,59,999.63
2016,03,05,14,00,999.63
2016,03,05,14,01,999.59
2016,03,05,14,02,999.59
2016,03,05,14,03,999.63
2016,03,05,14,04,999.63
2016,03,05,14,05,999.56
2016,03,05,14,06,999.56
2016,03,05,14,07,999.53
2016,03,05,14,08,999.53
2016,03,05,14,09,999.53
2016,03,05,14,10,999.56
2016,03,05,14,11,999.53
2016,03,05,14,12,999.53
2016,03,05,14,13,999.53
2016,03,05,14,14,999.49
2016,03,05,14,15,999.46
2016,03,05,14,16,999.46
2016,03,05,14,17,999.36
2016,03,05,14,18,999.39
2016,03,05,14,19,999.36
2016,03,05,14,20,999.36
2016,03,05,14,21,999.29
2016,03,05,14,22,999.29
2016,03,05,14,23,999.32
2016,03,05,14,24,999.29
2016,03,05,14,25,999.29
2016,03,05,14,26,999.29
2016,03,05,14,27,999.26
2016,03,05,14,28,999.26
2016,03,05,14,29,999.29
2016,03,05,14,30,999.29
2016,03,05,14,31,999.29
2016,03,05,14,32,999.26
2016,03,05,14,33,999.26
2016,03,05,14,34,999.26
2016,03,05,14,35,999.15
2016,03,05,14,36,999.19
2016,03,05,14,37,999.15
2016,03,05,14,38,999.15
2016,03,05,14,39,999.12
2016,03,05,14,40,999.02
2016,03,05,14,41,999.05
2016,03,05,14,42,998.99
2016,03,05,14,43,998.99
2016,03,05,14,44,999.02
2016,03,05,14,45,999.02
2016,03,05,14,46,999.02
2016,03,05,14,47,998.99
2016,03,05,14,48,998.99
2016,03,05,14,49,998.95
2016,03,05,14,50,998.88
2016,03,05,14,51,998.92
2016,03,05,14,52,998.88
2016,03,05,14,53,998.82
2016,03,05,14,54,998.78
2016,03,05,14,55,998.78
2016,03,05,14,56,998.71
2016,03,05,14,57,998.61
2016,03,05,14,58,998.58
2016,03,05,14,59,998.61
2016,03,05,15,00,998.58
2016,03,05,15,01,998.58
2016,03,05,15,02,998.54
2016,03,05,15,03,998.51
2016,03,05,15,04,998.48
2016,03,05,15,05,998.44
2016,03,05,15,06,998.41
2016,03,05,15,07,998.34
2016,03,05,15,08,998.31
2016,03,05,15,09,998.27
2016,03,05,15,10,998.21
2016,03,05,15,11,998.10
2016,03,05,15,12,998.07
2016,03,05,15,13,998.00
2016,03,05,15,14,997.94
2016,03,05,15,15,997.90
2016,03,05,15,16,997.83
2016,03,05,15,17,997.87
2016,03,05,15,18,997.73
2016,03,05,15,19,997.70
2016,03,05,15,20,997.66
2016,03,05,15,21,997.60
2016,03,05,15,22,997.50
2016,03,05,15,23,997.46
2016,03,05,15,24,997.39
2016,03,05,15,25,997.36
2016,03,05,15,26,997.29
2016,03,05,15,27,997.19
2016,03,05,15,28,997.19
2016,03,05,15,29,997.16
2016,03,05,15,30,997.12
2016,03,05,15,31,997.12
2016,03,05,15,32,997.05
2016,03,05,15,33,997.05
2016,03,05,15,34,997.05
2016,03,05,15,35,997.02
2016,03,05,15,36,996.99
2016,03,05,15,37,996.95
2016,03,05,15,38,996.89
2016,03,05,15,39,996.82
2016,03,05,15,40,996.85
2016,03,05,15,41,996.72
2016,03,05,15,42,996.68
2016,03,05,15,43,996.68
2016,03,05,15,44,996.68
2016,03,05,15,45,996.68
2016,03,05,15,46,996.65
2016,03,05,15,47,996.61
2016,03,05,15,48,996.55
2016,03,05,15,49,996.55
2016,03,05,15,50,996.55
2016,03,05,15,51,996.55
2016,03,05,15,52,996.58
2016,03,05,15,53,996.55
2016,03,05,15,54,996.55
2016,03,05,15,55,996.55
2016,03,05,15,56,996.58
2016,03,05,15,57,996.55
2016,03,05,15,58,996.51
2016,03,05,15,59,996.45
2016,03,05,16,00,996.48
2016,03,05,16,01,996.48
2016,03,05,16,02,996.48
2016,03,05,16,03,996.48
2016,03,05,16,04,996.48
2016,03,05,16,05,996.45
2016,03,05,16,06,996.45
2016,03,05,16,07,996.48
2016,03,05,16,08,996.48
2016,03,05,16,09,996.41
2016,03,05,16,10,996.41
2016,03,05,16,11,996.41
2016,03,05,16,12,996.41
2016,03,05,16,13,996.38
2016,03,05,16,14,996.28
2016,03,05,16,15,996.24
2016,03,05,16,16,996.17
2016,03,05,16,17,996.11
2016,03,05,16,18,996.04
2016,03,05,16,19,996.04
2016,03,05,16,20,995.97
2016,03,05,16,21,995.97
2016,03,05,16,22,996.01
2016,03,05,16,23,996.04
2016,03,05,16,24,996.04
2016,03,05,16,25,996.04
2016,03,05,16,26,995.97
2016,03,05,16,27,996.01
2016,03,05,16,28,995.94
2016,03,05,16,29,995.87
2016,03,05,16,30,995.80